This demonstration page uses our WeatherBlox Daily Observations layout. Learn more.

Left ArrowRight Arrow

39.51506, -84.39828

Hourly Observations for May 11, 2019

Temp ( °F °C ) Dew Point ( °F °C ) Humidity (%) Winds ( mph kmh ) Pressure ( in mb ) Visibility ( mi km ) Precip ( " mm )
12:15 am 00:15 Mostly Cloudy 49 9.4 45 7 85 85 Calm 30.18 1022 10 16 0.00 0.00
12:35 am 00:35 Partly Cloudy 48 9 46 8 94 94 Calm 30.18 1022 10 16 0.00 0.00
12:55 am 00:55 Mostly Cloudy 48 9 46 7.5 90 90 NNW 3 6 30.18 1022 10 16 0.00 0.00
1:15 am 01:15 Mostly Cloudy 48 9 45 7.2 89 89 N 3 6 30.17 1022 10 16 0.00 0.00
1:35 am 01:35 Clear 47 8.6 45 7.2 91 91 N 5 7 30.17 1022 10 16 0.00 0.00
1:55 am 01:55 Clear 47 8.6 45 7.2 91 91 N 5 7 30.16 1021 10 16 0.00 0.00
2:15 am 02:15 Clear 47 8.4 45 7.1 92 92 Calm 30.16 1021 10 16 0.00 0.00
2:35 am 02:35 Clear 47 8.5 45 7.2 92 92 Calm 30.15 1021 10 16 0.00 0.00
2:55 am 02:55 Clear 45 7.2 44 6.5 95 95 N 8 13 30.13 1020 10 16 0.00 0.00
3:15 am 03:15 Clear 45 7.3 43 6.2 93 93 Calm 30.14 1021 10 16 0.00 0.00
3:35 am 03:35 Clear 46 7.5 44 6.4 93 93 Calm 30.14 1020 10 16 0.00 0.00
3:55 am 03:55 Clear 45 7.2 43 6.3 94 94 Calm 30.14 1021 10 16 0.00 0.00
4:15 am 04:15 Clear 43 6.3 42 5.6 95 95 N 3 6 30.13 1020 10 16 0.00 0.00
4:35 am 04:35 Clear 43 6 42 5.3 95 95 Calm 30.13 1020 10 16 0.00 0.00
4:55 am 04:55 Clear 43 6.3 42 5.5 95 95 Calm 30.14 1021 10 16 0.00 0.00
5:15 am 05:15 Clear 43 6.1 42 5.3 95 95 Calm 30.14 1021 10 16 0.00 0.00
5:35 am 05:35 Clear 43 6 41 5.1 94 94 N 3 6 30.14 1021 10 16 0.00 0.00
5:55 am 05:55 Clear 42 5.6 41 5 96 96 Calm 30.13 1020 10 16 0.00 0.00
6:15 am 06:15 Clear 41 5.1 40 4.6 97 97 NNE 3 6 30.13 1020 10 16 0.00 0.00
6:35 am 06:35 Sunny 42 5.3 41 4.8 97 97 ENE 3 6 30.13 1020 10 16 0.00 0.00
6:55 am 06:55 Sunny 43 5.9 42 5.3 96 96 NNE 3 6 30.13 1020 10 16 0.00 0.00
7:15 am 07:15 Sunny 44 6.7 43 5.9 95 95 Calm 30.13 1020 10 16 0.00 0.00
7:35 am 07:35 Sunny 46 7.7 44 6.5 92 92 E 3 6 30.12 1020 10 16 0.00 0.00
7:55 am 07:55 Sunny 47 8.4 44 6.9 90 90 ENE 5 7 30.12 1020 10 16 0.00 0.00
8:15 am 08:15 Sunny 49 9.2 44 6.8 85 85 ENE 6 9 30.13 1020 10 16 0.00 0.00
8:35 am 08:35 Sunny 50 10 44 6.8 81 81 NE 8 13 30.13 1020 10 16 0.00 0.00
8:55 am 08:55 Sunny 51 10.8 44 6.8 77 77 ENE 8 13 30.12 1020 10 16 0.00 0.00
9:15 am 09:15 Sunny 53 11.9 44 6.8 71 71 E 10 17 30.10 1019 10 16 0.00 0.00
9:35 am 09:35 Sunny 55 12.5 44 6.9 69 69 ENE 10 17 30.09 1019 10 16 0.00 0.00
9:55 am 09:55 Partly Cloudy 56 13.3 46 7.5 68 68 E 15 24 30.08 1019 10 16 0.00 0.00
10:15 am 10:15 Partly Cloudy 56 13.3 44 6.9 65 65 E 13 20 30.08 1019 10 16 0.00 0.00
10:35 am 10:35 Mostly Cloudy 57 14 44 6.8 62 62 ESE 12 19 30.08 1019 10 16 0.00 0.00
10:55 am 10:55 Partly Cloudy 58 14.3 45 7.1 62 62 ESE 9 15 30.07 1018 10 16 0.00 0.00
11:15 am 11:15 Mostly Cloudy 58 14.7 46 7.6 63 63 E 9 15 30.06 1018 10 16 0.00 0.00
11:35 am 11:35 Partly Cloudy 60 15.3 47 8.4 64 64 ENE 13 20 30.05 1017 10 16 0.00 0.00
11:55 am 11:55 Sunny 60 15.3 46 8 62 62 ENE 9 15 30.04 1017 10 16 0.00 0.00
12:15 pm 12:15 Sunny 60 15.7 47 8.5 62 62 NE 9 15 30.02 1017 10 16 0.00 0.00
12:35 pm 12:35 Partly Cloudy 61 16.1 48 8.7 62 62 ENE 8 13 30.02 1017 10 16 0.00 0.00
12:55 pm 12:55 Partly Cloudy 62 16.5 49 9.4 63 63 ENE 13 20 30.01 1016 10 16 0.00 0.00
1:15 pm 13:15 Partly Cloudy 62 16.8 49 9.2 61 61 E 13 20 29.99 1016 10 16 0.00 0.00
1:35 pm 13:35 Sunny 63 17.4 49 9.5 60 60 E 7 11 29.98 1015 10 16 0.00 0.00
1:55 pm 13:55 Partly Cloudy 64 18 49 9.7 59 59 E 7 11 29.96 1015 10 16 0.00 0.00
2:15 pm 14:15 Sunny 65 18.3 50 10 59 59 E 12 19 29.95 1014 10 16 0.00 0.00
2:35 pm 14:35 Sunny 65 18.6 49 9.5 56 56 E 8 13 29.95 1014 10 16 0.00 0.00
2:55 pm 14:55 Sunny 66 18.8 50 10 57 57 E 14 22 29.92 1013 10 16 0.00 0.00
3:15 pm 15:15 Mostly Cloudy 65 18.4 49 9.5 56 56 E 12 19 29.94 1014 10 16 0.00 0.00
3:35 pm 15:35 Cloudy 65 18.2 49 9.6 57 57 E 9 15 29.93 1014 10 16 0.00 0.00
3:55 pm 15:55 Cloudy 65 18.2 49 9.5 57 57 E 12 19 29.92 1013 10 16 0.00 0.00
4:15 pm 16:15 Cloudy 65 18.1 50 9.8 59 59 ENE 9 15 29.92 1013 10 16 0.00 0.00
4:35 pm 16:35 Cloudy 65 18.2 50 9.8 58 58 E 9 15 29.90 1012 10 16 0.00 0.00
4:55 pm 16:55 Cloudy 65 18.1 49 9.7 58 58 ENE 6 9 29.90 1012 10 16 0.00 0.00
5:15 pm 17:15 Cloudy 64 18 49 9.4 57 57 ENE 8 13 29.88 1012 10 16 0.00 0.00
5:35 pm 17:35 Cloudy 64 18 49 9.4 57 57 ENE 7 11 29.88 1012 10 16 0.00 0.00
5:55 pm 17:55 Cloudy 64 18 50 9.8 59 59 E 6 9 29.87 1011 10 16 0.00 0.00
6:15 pm 18:15 Cloudy 64 17.9 49 9.4 58 58 E 8 13 29.86 1011 10 16 0.00 0.00
6:35 pm 18:35 Cloudy 64 18 48 9.1 56 56 E 12 19 29.84 1010 10 16 0.00 0.00
6:55 pm 18:55 Cloudy with Light Rain 63 17.3 50 9.8 62 62 E 8 13 29.84 1011 10 16 0.00 0.00
7:15 pm 19:15 Cloudy with Light Rain 62 16.6 51 10.6 68 68 ENE 8 13 29.82 1010 10 16 0.00 0.00
7:35 pm 19:35 Cloudy 62 16.5 51 10.8 69 69 NE 6 9 29.82 1010 10 16 0.00 0.00
7:55 pm 19:55 Cloudy with Light Rain 61 16.3 50 9.9 66 66 ENE 7 11 29.82 1010 10 16 0.00 0.00
8:15 pm 20:15 Cloudy with Light Rain 60 15.5 51 10.5 72 72 ENE 7 11 29.82 1010 10 16 0.00 0.00
8:35 pm 20:35 Cloudy with Light Rain 60 15.6 51 10.4 71 71 ENE 6 9 29.81 1009 10 16 0.00 0.00
8:55 pm 20:55 Cloudy with Drizzle 60 15.5 50 9.9 69 69 NE 8 13 29.81 1009 10 16 0.00 0.00
9:15 pm 21:15 Cloudy with Light Rain 59 14.8 49 9.6 71 71 NE 13 20 29.81 1009 10 16 0.00 0.00
9:35 pm 21:35 Cloudy with Rain 55 12.6 48 9 79 79 NE 13 20 29.82 1010 7 11 0.01 0.25
9:55 pm 21:55 Cloudy with Light Rain 53 11.7 48 8.8 83 83 NNE 8 13 29.84 1011 5 8 0.02 0.51
10:15 pm 22:15 Cloudy with Light Rain 52 10.9 47 8.2 84 84 NNE 12 19 29.86 1011 7 11 0.00 0.00
10:35 pm 22:35 Cloudy with Light Rain 51 10.5 46 8 85 85 NE 13 20 29.86 1011 7 11 0.01 0.25
10:55 pm 22:55 Cloudy with Light Rain 49 9.6 46 8 90 90 NNE 9 15 29.87 1012 10 16 0.02 0.51
11:15 pm 23:15 Cloudy with Light Rain 48 9 46 7.8 92 92 NNE 10 17 29.86 1011 10 16 0.00 0.00
11:35 pm 23:35 Cloudy 47 8.4 45 7.1 92 92 NNE 14 22 29.86 1011 10 16 0.00 0.00
11:55 pm 23:55 Cloudy with Light Rain 46 8 44 6.7 92 92 NE 13 20 29.85 1011 10 16 0.00 0.00

Powered by AerisWeather